San Antonio, TX

6:36 AM CDT on July 29, 2016 (GMT -0500)
Stinson Municipal

Weather History for KSSF - January, 2013

Change the Weather History Date:

Thursday, January 10, 2013

  Actual Average Record
Temperature  
Mean Temperature 54 °F -  
Max Temperature 66 °F 62 °F 80 °F (2000)
Min Temperature 42 °F 41 °F 27 °F (1999)
Degree Days  
Heating Degree Days 10    
Growing Degree Days 4 (Base 50)    
Moisture  
Dew Point 44 °F    
Average Humidity 79    
Maximum Humidity 100    
Minimum Humidity 43    
Precipitation  
Precipitation 0.00 in - - ()
Sea Level Pressure  
Sea Level Pressure 30.04 in    
Wind  
Wind Speed 5 mph (WSW)    
Max Wind Speed 20 mph    
Max Gust Speed 29 mph    
Visibility 10 miles    
Events      
Averages and records for this station are not official NWS values.
T = Trace of Precipitation, MM = Missing Value Source: NWS Daily Summary

Daily Weather History Graph

Daily Weather History Graph

Search for Another Location

Airport or City:

Trip Planner

Search our weather history database for the weather conditions in past years. The results will help you decide how hot, cold, wet, or windy it might be!

Date:

Astronomy

Jan. 10, 2013 Rise Set
Actual Time 7:29 AM CST 5:53 PM CST
Civil Twilight 7:03 AM CST 6:19 PM CST
Nautical Twilight 6:34 AM CST 6:49 PM CST
Astronomical Twilight 6:05 AM CST 7:17 PM CST
Moon 6:11 AM CST (1/10) 5:02 PM CST (1/10)
Length of Visible Light 11h 16m
Length of Day
10h 24m
Waning Crescent, 2% of the Moon is Illuminated
Jan 10
Waning Crescent
Jan 11
New
Jan 18
First Quarter
Jan 26
Full
Feb 3
Last Quarter

Hourly Weather History & Observations

Time (CST) Temp. Windchill Dew Point Humidity Pressure Visibility Wind Dir Wind Speed Gust Speed Precip Events Conditions
12:53 AM 48.9 °F - 48.9 °F 100% 30.04 in 9.0 mi Calm Calm - N/A   Clear
1:38 AM 48.2 °F - 48.2 °F 100% 30.06 in 9.0 mi South 4.6 mph - N/A   Partly Cloudy
1:53 AM 48.9 °F - 48.9 °F 100% 30.05 in 10.0 mi SSW 6.9 mph - N/A   Partly Cloudy
2:53 AM 48.0 °F - 48.0 °F 100% 30.06 in 10.0 mi WSW 6.9 mph - N/A   Clear
3:53 AM 48.0 °F - 46.9 °F 96% 30.06 in 10.0 mi SW 6.9 mph - N/A   Clear
4:53 AM 46.0 °F 41.9 °F 46.0 °F 100% 30.06 in 10.0 mi WSW 8.1 mph - N/A   Clear
5:53 AM 44.1 °F 41.5 °F 44.1 °F 100% 30.05 in 10.0 mi WSW 4.6 mph - N/A   Clear
6:53 AM 44.1 °F - 43.0 °F 96% 30.05 in 10.0 mi Calm Calm - N/A   Clear
7:53 AM 43.0 °F - 43.0 °F 100% 30.07 in 10.0 mi Calm Calm - N/A   Clear
8:53 AM 48.0 °F - 44.1 °F 86% 30.07 in 10.0 mi West 8.1 mph - N/A   Clear
9:53 AM 52.0 °F - 44.1 °F 74% 30.06 in 10.0 mi West 16.1 mph 20.7 mph N/A   Clear
10:53 AM 57.9 °F - 43.0 °F 58% 30.06 in 10.0 mi West 19.6 mph 28.8 mph N/A   Clear
12:53 PM 62.1 °F - 43.0 °F 50% 30.02 in 10.0 mi West 13.8 mph - N/A   Clear
1:53 PM 64.0 °F - 44.1 °F 48% 30.01 in 10.0 mi West 10.4 mph 16.1 mph N/A   Clear
2:53 PM 64.9 °F - 42.1 °F 43% 29.99 in 10.0 mi West 6.9 mph 16.1 mph N/A   Clear
3:53 PM 66.0 °F - 43.0 °F 43% 29.99 in 10.0 mi WSW 12.7 mph - N/A   Clear
4:53 PM 64.0 °F - 43.0 °F 46% 30.00 in 10.0 mi SW 6.9 mph - N/A   Clear
5:53 PM 60.1 °F - 43.0 °F 53% 30.00 in 10.0 mi SW 5.8 mph - N/A   Clear
6:53 PM 55.0 °F - 45.0 °F 69% 30.02 in 10.0 mi South 3.5 mph - N/A   Clear
7:53 PM 51.1 °F - 44.1 °F 77% 30.02 in 10.0 mi Calm Calm - N/A   Clear
8:53 PM 48.0 °F - 44.1 °F 86% 30.02 in 10.0 mi Calm Calm - N/A   Clear
9:53 PM 48.0 °F - 44.1 °F 86% 30.02 in 10.0 mi Calm Calm - N/A   Clear
10:53 PM 45.0 °F - 43.0 °F 93% 30.03 in 10.0 mi Calm Calm - N/A   Clear
11:53 PM 42.1 °F - 41.0 °F 96% 30.04 in 10.0 mi Calm Calm - N/A   Clear